Flag for China Weather past 2 weeks in Kunming, Yunnan, China

Now
72 °F

Clear.


Feels Like: 76 °F
Forecast: 60 / 80 °F
Wind: 15 mph from Southwest

Location: Kunming Airport

Current Time: Jun 4, 2015 at 12:00:35 AM

Latest Report: Jun 3, 2015 at 11:00 PM


Visibility: 10 mi

Pressure: 30.12 "Hg

Humidity: 61%

Dew point: 57 °F

Location of KunmingLocation

Historic Weather in Kunming — Graph

°F

Kunming temperature yesterday

Maximum temperature yesterday: 82 °F (at 2:00 PM)
Minimum temperature yesterday: 64 °F (at 7:00 AM)
Average temperature yesterday: 73 °F

Past Weeks' High & Low Weather Summary

 TemperatureHumidityPressure
High86 °F (Jun 2, 3:00 PM)100% (May 23, 1:00 AM)30.15 "Hg (May 23, 1:00 AM)
Low54 °F (May 23, 6:00 AM)30% (May 29, 3:00 PM)29.86 "Hg (May 28, 5:00 PM)
Average70 °F62%30.02 "Hg
* Reported May 19 11:00 PM — Jun 3 11:00 PM, Kunming, Weather by CustomWeather, © 2015

Note: Actual official high and low records may vary slightly from our data, if they occured in-between our weather recording intervals... More about our weather records

Advertising

Kunming weather history for previous 24 hours

 ConditionsComfort  
Time TempWeatherWind HumidityBarometerVisibility
11:00 PM
Wed, Jun 3
72 °FClear.15 mph61%30.12 "Hg10 mi
10:00 PM73 °FPassing clouds.13 mph57%30.09 "HgN/A
9:00 PM75 °FPassing clouds.15 mph54%30.07 "HgN/A
8:00 PM77 °FPassing clouds.13 mph51%30.04 "HgN/A
7:00 PM79 °FPassing clouds.10 mph45%30.01 "HgN/A
6:00 PM81 °FScattered clouds.10 mph42%30.01 "HgN/A
5:00 PM82 °FScattered clouds.15 mph40%30.01 "HgN/A
4:00 PM82 °FScattered clouds.10 mph40%30.04 "HgN/A
3:00 PM82 °FScattered clouds.13 mph40%30.07 "HgN/A
2:00 PM82 °FScattered clouds.13 mph37%30.09 "HgN/A
1:00 PM81 °FScattered clouds.10 mph45%30.09 "HgN/A
12:00 PM77 °FScattered clouds.10 mph51%30.12 "HgN/A
11:00 AM75 °FScattered clouds.13 mph54%30.12 "HgN/A
10:00 AM72 °FBroken clouds.13 mph65%30.15 "HgN/A
9:00 AM70 °FPartly sunny.13 mph69%30.12 "HgN/A
8:00 AM66 °FPartly sunny.13 mph78%30.12 "HgN/A
7:00 AM64 °FPartly sunny.10 mph78%30.09 "HgN/A
6:00 AM66 °FPassing clouds.10 mph73%30.07 "HgN/A
5:00 AM66 °FClear.10 mph68%30.07 "Hg10 mi
4:00 AM66 °FClear.8 mph68%30.07 "Hg10 mi
3:00 AM66 °FClear.10 mph68%30.04 "Hg10 mi
2:00 AM68 °FClear.13 mph64%30.07 "Hg10 mi
1:00 AM70 °FClear.15 mph57%30.04 "Hg10 mi
12:00 AM70 °FClear.17 mph57%30.04 "Hg10 mi
Weather by CustomWeather, © 2015

See weather overviewHow to use our weather pages